This is the latest recevied weather packets stored in our database for station/object DB0ASF-4. If no packets are shown the sender has not sent any weather packets the latest 10 day(s).
| Time | Temp. | Humidity | Pressure | Rain* | Wind** | Luminosity | Snow |
|---|---|---|---|---|---|---|---|
| 1777454355 | 16.67° C | 28% | 1029.5 hPa | 0 mm | - | - | - |
| 1777453755 | 16.11° C | 28% | 1029.5 hPa | 0 mm | - | - | - |
| 1777453155 | 16.11° C | 30% | 1029.5 hPa | 0 mm | - | - | - |
| 1777452555 | 15.56° C | 31% | 1029.5 hPa | 0 mm | - | - | - |
| 1777451955 | 15° C | 31% | 1029.4 hPa | 0 mm | - | - | - |
| 1777451355 | 14.44° C | 33% | 1029.4 hPa | 0 mm | - | - | - |
| 1777450755 | 13.89° C | 35% | 1029.5 hPa | 0 mm | - | - | - |
| 1777450155 | 13.33° C | 37% | 1029.4 hPa | 0 mm | - | - | - |
| 1777449555 | 12.78° C | 39% | 1029.4 hPa | 0 mm | - | - | - |
| 1777448955 | 12.22° C | 40% | 1029.4 hPa | 0 mm | - | - | - |
| 1777448355 | 11.67° C | 41% | 1029.4 hPa | 0 mm | - | - | - |
| 1777447755 | 11.67° C | 42% | 1029.3 hPa | 0 mm | - | - | - |
| 1777447155 | 11.11° C | 43% | 1029.3 hPa | 0 mm | - | - | - |
| 1777446555 | 10.56° C | 45% | 1029.3 hPa | 0 mm | - | - | - |
| 1777445955 | 10° C | 46% | 1029.1 hPa | 0 mm | - | - | - |
| 1777445355 | 9.44° C | 48% | 1029.3 hPa | 0 mm | - | - | - |
| 1777444755 | 8.89° C | 49% | 1029.1 hPa | 0 mm | - | - | - |
| 1777444155 | 8.89° C | 49% | 1029.3 hPa | 0 mm | - | - | - |
| 1777443555 | 8.33° C | 51% | 1029.1 hPa | 0 mm | - | - | - |
| 1777442955 | 7.78° C | 51% | 1029.1 hPa | 0 mm | - | - | - |
| 1777442355 | 7.22° C | 52% | 1029 hPa | 0 mm | - | - | - |
| 1777441755 | 7.22° C | 52% | 1028.9 hPa | 0 mm | - | - | - |
| 1777441155 | 6.67° C | 52% | 1028.9 hPa | 0 mm | - | - | - |
| 1777440555 | 6.67° C | 52% | 1028.8 hPa | 0 mm | - | - | - |
| 1777439955 | 6.67° C | 52% | 1028.8 hPa | 0 mm | - | - | - |
* Rain latest hour (hover to see other rain measurements)
** Current wind speed in m/s (hover to see current wind gust speed)